[[{"header":{"parameterUnit":"m.s-1","parameterCategory":1,"la1":30.2991,"la2":30.254,"lo1":-89.0895,"lo2":-89.0444,"dy":0.0017,"dx":0.0017,"nx":28,"ny":28,"refTime":"2025-06-15T21:00:00:Z","depth":0,"parameterNumber":2,"parameterNumberName":"U-component_of_WINDS"},"data":[0,0,0,0,0,0,0,0,0,0,0,0,0,0,0,0,0,0,0,0,0,0,0,0,0,0,0,0,0,0,0,0,0,0,0,0,0,0,0,0,0,0,0,0,0,0,0,0,0,0,0,0,0,0,0,0,0,0,3.0354,3.0355,0,3.0447,3.0448,3.0449,3.043,3.0429,3.0427,3.0425,3.0518,3.0522,3.0526,0,0,0,0,0,0,0,0,0,0,0,0,0,3.0158,3.0162,3.0354,3.0356,3.0357,3.0447,3.0448,3.0449,3.0431,3.0428,3.0426,3.0424,3.0517,3.0522,3.0526,0,0,0,0,0,0,0,0,0,0,0,0,0,3.0246,3.0163,3.0354,3.0358,3.036,3.0447,3.0448,3.045,3.0431,3.0428,3.0426,3.0423,3.0515,3.0521,3.0527,3.0615,0,0,3.0546,3.0548,0,0,0,0,0,0,0,0,3.0241,3.0253,3.0356,3.0358,3.036,3.0425,3.0413,3.0505,3.0432,3.0404,3.0425,3.0422,3.0489,3.0497,3.052,3.062,3.0624,3.0546,3.055,3.0552,3.0554,0,0,0,0,0,0,0,3.0235,3.0249,3.0391,3.0358,3.036,3.0354,3.0364,3.043,3.0459,3.0406,3.0405,3.0416,3.0489,3.0514,3.0522,3.0625,3.0546,3.0551,3.0555,3.0558,3.0798,3.0801,0,0,0,0,0,0,3.0228,3.0244,3.0388,3.0394,3.0293,3.036,3.0371,3.0406,3.0459,3.0464,3.0418,3.0415,3.0505,3.0515,3.0525,3.0629,3.0552,3.0558,3.0562,3.0796,3.0799,3.0802,0,0,0,0,0,0,3.0224,3.0241,3.0384,3.0319,3.0337,3.0366,3.0406,3.0409,3.0434,3.0468,3.0473,3.0438,3.0503,3.0516,3.0592,3.0632,3.0561,3.0566,3.0792,3.0797,3.08,3.0839,0,0,0,0,0,0,3.0218,3.024,3.0274,3.032,3.034,3.0451,3.0409,3.0413,3.0445,3.0441,3.0488,3.0493,3.0502,3.0583,3.0598,3.0639,3.0571,3.0789,3.0794,3.0799,3.0834,3.0844,3.0852,0,0,0,0,0,3.0211,3.0282,3.0276,3.0294,3.0384,3.0454,3.0465,3.0475,3.0448,3.0482,3.0504,3.0492,3.0626,3.0591,3.0608,3.0651,3.0786,3.0793,3.0799,3.083,3.0842,3.0852,0,0,0,0,0,0,3.024,3.0288,3.0282,3.037,3.0408,3.045,3.0494,3.0487,3.0533,3.0528,3.0537,3.0548,3.0624,3.0646,3.0606,3.0738,3.0702,3.0712,3.072,3.0732,3.0741,3.0733,3.0576,0,0,0,0,0,3.0257,3.031,3.0349,3.0422,3.0441,3.0464,3.0495,3.0499,3.0538,3.0554,3.0581,3.0619,3.0669,3.0702,3.0751,3.0838,3.0846,3.0876,3.0885,3.0892,3.09,3.0944,3.0957,3.0822,3.0822,3.0822,0,0,3.0291,3.0324,3.0357,3.0428,3.0458,3.0511,3.0478,3.0536,3.0575,3.0563,3.0635,3.0656,3.0699,3.078,3.0818,3.0801,3.0939,3.09,3.0906,3.0909,3.0952,3.0965,3.0976,3.0826,3.0826,3.0825,0,0,3.0381,3.0412,3.0475,3.0506,3.0551,3.0566,3.0581,3.0625,3.0638,3.0711,3.0702,3.0748,3.0836,3.0866,3.0892,3.0992,3.0981,3.1008,3.1053,3.1097,3.1107,3.1117,3.1149,3.1161,3.1016,3.1016,3.1016,0,3.0418,3.0498,3.0508,3.0567,3.0597,3.0589,3.0651,3.0681,3.074,3.076,3.0741,3.0848,3.0877,3.0963,3.0987,3.1011,3.1026,3.1001,3.1105,3.1115,3.1124,3.1154,3.1167,3.1018,3.1018,3.1018,3.1017,0,3.054,3.0596,3.0641,3.0697,3.0733,3.0794,3.0812,3.0847,3.0847,3.0864,3.0937,3.0971,3.1024,3.1046,3.1048,3.1132,3.112,3.1103,3.1067,3.1139,3.1168,3.118,3.1022,3.1021,3.102,3.102,0,0,3.0649,3.071,3.0726,3.075,3.0799,3.0842,3.0901,3.0954,3.0982,3.1024,3.1071,3.1145,3.1129,3.1159,3.1165,3.1203,3.1275,3.1181,3.1182,3.1195,3.1367,3.1377,3.1391,3.127,3.1272,3.1274,3.1362,0,3.074,3.0845,3.0855,3.0948,3.0998,3.099,3.1041,3.1076,3.1093,3.1137,3.1155,3.1206,3.1183,3.12,3.1239,3.1259,3.131,3.1253,3.1312,3.1314,3.1299,3.1406,3.1418,3.1499,3.1374,3.1376,3.1377,0,3.0861,3.0904,3.1002,3.1042,3.1063,3.1109,3.1157,3.12,3.1239,3.1248,3.1281,3.1281,3.134,3.1303,3.1383,3.1344,3.137,3.1383,3.1386,3.139,3.1348,3.141,3.1526,3.1537,3.1396,3.1395,3.1393,0,3.0926,3.101,3.1078,3.11,3.1149,3.1181,3.1203,3.1239,3.1269,3.1311,3.133,3.1379,3.1405,3.1442,3.1453,3.1426,3.1532,3.1497,3.1539,3.1539,3.1559,3.1557,3.1678,3.1581,3.1581,3.158,3.158,0,3.1025,3.1085,3.1108,3.115,3.1215,3.1226,3.129,3.131,3.1343,3.1387,3.1384,3.1426,3.144,3.1484,3.1494,3.1557,3.1569,3.1577,3.1578,3.1575,3.1574,3.159,3.1583,3.1584,3.1583,3.1582,3.1582,0,3.1108,3.1127,3.12,3.1241,3.1252,3.1298,3.1332,3.1372,3.1388,3.1444,3.1457,3.1482,3.1533,3.1549,3.1611,3.1618,3.169,3.1688,3.1677,3.1676,3.1715,3.171,3.1848,3.1865,3.176,3.1761,3.1762,0,3.1169,3.1214,3.1259,3.1288,3.1311,3.136,3.139,3.1402,3.1434,3.1481,3.1514,3.1565,3.1605,3.1687,3.171,3.1756,3.1753,3.1798,3.176,3.1755,3.175,3.1746,3.1749,3.1804,3.1805,3.1806,3.1807,0,3.1273,3.1279,3.1324,3.1371,3.1408,3.1446,3.1482,3.1506,3.1524,3.1559,3.1611,3.1643,3.1706,3.1755,3.1802,3.1823,3.1817,3.1819,3.1831,3.1827,3.1817,3.182,3.1693,3.1815,3.1815,3.1814,3.1814,3.1813,3.1344,3.1383,3.142,3.1469,3.1498,3.1531,3.1569,3.159,3.1634,3.1685,3.169,3.1746,3.1781,3.1844,3.1868,3.191,3.1897,3.1915,3.1919,3.1922,3.1923,3.1813,3.1919,3.1919,3.1919,3.1919,3.1919,0,3.1445,3.1469,3.1514,3.1564,3.1602,3.1595,3.1634,3.1666,3.1715,3.1749,3.1789,3.1847,3.1895,3.1921,3.1968,3.1997,3.1995,3.2009,3.2005,3.201,3.1934,3.1918,3.2009,3.2009,3.2009,3.2009,3.2009,3.2009,3.1502,3.1566,3.1577,3.1654,3.1677,3.1731,3.1754,3.1784,3.1811,3.1876,3.1916,3.1933,3.1964,3.2013,3.2055,3.2062,3.2078,3.2092,3.2096,3.2025,3.2015,3.2006,3.1991,3.2096,3.2096,3.2168,3.2169,3.2169]},{"header":{"parameterUnit":"m.s-1","parameterCategory":1,"la1":30.2991,"la2":30.254,"lo1":-89.0895,"lo2":-89.0444,"dy":0.0017,"dx":0.0017,"nx":28,"ny":28,"refTime":"2025-06-15T21:00:00:Z","depth":0,"parameterNumber":3,"parameterNumberName":"V-component_of_WINDS"},"data":[0,0,0,0,0,0,0,0,0,0,0,0,0,0,0,0,0,0,0,0,0,0,0,0,0,0,0,0,0,0,0,0,0,0,0,0,0,0,0,0,0,0,0,0,0,0,0,0,0,0,0,0,0,0,0,0,0,0,3.5051,3.5052,0,3.5182,3.5184,3.5185,3.5164,3.5162,3.5159,3.5157,3.529,3.5296,3.5302,0,0,0,0,0,0,0,0,0,0,0,0,0,3.4779,3.4784,3.5051,3.5052,3.5054,3.5182,3.5184,3.5185,3.5164,3.5162,3.5159,3.5156,3.5289,3.5295,3.5302,0,0,0,0,0,0,0,0,0,0,0,0,0,3.4902,3.4786,3.505,3.5059,3.5061,3.5181,3.5184,3.5186,3.5165,3.5161,3.5158,3.5155,3.5286,3.5295,3.5303,3.5423,0,0,3.5329,3.5333,0,0,0,0,0,0,0,0,3.4895,3.4912,3.5056,3.5058,3.5061,3.5153,3.5137,3.5265,3.5166,3.5125,3.5157,3.5153,3.5247,3.5259,3.5291,3.5429,3.5435,3.533,3.5335,3.5338,3.5341,0,0,0,0,0,0,0,3.4887,3.4906,3.5103,3.5058,3.5061,3.5055,3.5069,3.5161,3.5204,3.5129,3.5127,3.5143,3.5248,3.5283,3.5294,3.5437,3.5329,3.5337,3.5342,3.5345,3.5678,3.5682,0,0,0,0,0,0,3.4876,3.4899,3.5098,3.5106,3.4968,3.5063,3.5078,3.5127,3.5203,3.5211,3.5146,3.5142,3.527,3.5284,3.5298,3.5443,3.5338,3.5346,3.5351,3.5674,3.5679,3.5683,0,0,0,0,0,0,3.487,3.4894,3.5093,3.5003,3.5028,3.5071,3.5126,3.5131,3.5166,3.5216,3.5223,3.5174,3.5268,3.5287,3.5392,3.5447,3.535,3.5358,3.567,3.5676,3.5681,3.5733,0,0,0,0,0,0,3.4862,3.4892,3.4939,3.5004,3.5033,3.5185,3.5129,3.5136,3.5181,3.5177,3.5244,3.5252,3.5267,3.5379,3.54,3.5457,3.5364,3.5665,3.5672,3.5679,3.5727,3.574,3.5751,0,0,0,0,0,3.4853,3.4949,3.4941,3.4966,3.5092,3.5189,3.5205,3.522,3.5185,3.5232,3.5264,3.525,3.5438,3.539,3.5414,3.5474,3.5662,3.567,3.5679,3.5721,3.5737,3.5751,0,0,0,0,0,0,3.4889,3.4957,3.495,3.507,3.5124,3.5185,3.5245,3.5237,3.5302,3.5295,3.5311,3.5326,3.5433,3.5464,3.541,3.5593,3.5545,3.5558,3.5569,3.5585,3.5597,3.5587,3.5371,0,0,0,0,0,3.4911,3.4984,3.504,3.514,3.5167,3.5201,3.5244,3.5251,3.5307,3.533,3.5369,3.5424,3.5495,3.5541,3.561,3.5731,3.5744,3.5783,3.5796,3.5805,3.5817,3.5882,3.5899,3.5711,3.5711,3.571,0,0,3.4957,3.5003,3.5049,3.5148,3.5191,3.5265,3.5221,3.5302,3.5357,3.5342,3.5444,3.5474,3.5536,3.5649,3.5701,3.5678,3.5872,3.5816,3.5824,3.583,3.5892,3.591,3.5926,3.5716,3.5715,3.5714,0,0,3.5079,3.5122,3.5209,3.5252,3.5317,3.5339,3.536,3.5422,3.5442,3.5544,3.5534,3.5599,3.5722,3.5766,3.5804,3.594,3.5929,3.5962,3.6026,3.6088,3.6103,3.6117,3.6164,3.6181,3.5973,3.5973,3.5973,0,3.5128,3.524,3.5255,3.5337,3.538,3.537,3.5458,3.5499,3.5582,3.5612,3.5585,3.5738,3.5779,3.5901,3.5934,3.5966,3.5989,3.5954,3.61,3.6114,3.6126,3.6172,3.6189,3.5977,3.5976,3.5976,3.5976,0,3.5297,3.5375,3.5437,3.5518,3.5568,3.5653,3.5679,3.5728,3.573,3.5755,3.5858,3.5906,3.5983,3.6013,3.6016,3.6136,3.6119,3.6096,3.6048,3.6147,3.619,3.6208,3.5982,3.598,3.5979,3.5979,0,0,3.5446,3.5533,3.5555,3.5591,3.5661,3.5721,3.5804,3.588,3.5921,3.5978,3.6047,3.6151,3.6129,3.6173,3.618,3.6236,3.6339,3.6206,3.6207,3.6228,3.6472,3.6488,3.6508,3.6331,3.6335,3.6337,3.6466,0,3.5574,3.5722,3.5736,3.5868,3.5939,3.5929,3.6001,3.6051,3.6075,3.6139,3.6165,3.6238,3.6204,3.623,3.6284,3.6315,3.6388,3.6306,3.6395,3.6398,3.638,3.6531,3.6549,3.6669,3.6483,3.6486,3.6488,0,3.5743,3.5805,3.5944,3.6002,3.6032,3.6097,3.6167,3.6228,3.6283,3.6297,3.6345,3.6345,3.6429,3.6377,3.6493,3.6436,3.6473,3.6494,3.6499,3.6507,3.6449,3.6543,3.6707,3.6725,3.6515,3.6513,3.6511,0,3.5837,3.5955,3.6053,3.6084,3.6155,3.62,3.6231,3.6284,3.6327,3.6388,3.6416,3.6485,3.6523,3.6576,3.6595,3.6555,3.6709,3.6659,3.6722,3.6721,3.6755,3.6752,3.6926,3.6779,3.6779,3.6779,3.6778,0,3.5978,3.6063,3.6096,3.6156,3.6251,3.6266,3.6358,3.6387,3.6433,3.6498,3.6494,3.6554,3.6575,3.6639,3.6653,3.6746,3.6763,3.6776,3.6778,3.6776,3.6774,3.6801,3.6793,3.6783,3.6782,3.6782,3.6781,0,3.61,3.6125,3.6231,3.6288,3.6305,3.6371,3.642,3.6478,3.65,3.6582,3.6602,3.6637,3.6712,3.6735,3.6825,3.6835,3.6943,3.6939,3.6925,3.6925,3.6986,3.6979,3.7183,3.7209,3.7045,3.7047,3.7048,0,3.6188,3.6253,3.6317,3.636,3.6393,3.6463,3.6507,3.6524,3.657,3.6637,3.6686,3.676,3.682,3.6939,3.6973,3.7041,3.7038,3.7104,3.7048,3.7043,3.7038,3.7034,3.704,3.7115,3.7117,3.7118,3.7119,0,3.6341,3.635,3.6415,3.6483,3.6536,3.6591,3.6644,3.6679,3.6703,3.6755,3.6832,3.6878,3.6969,3.7042,3.7112,3.7143,3.7135,3.7136,3.7154,3.7152,3.7141,3.7147,3.6953,3.7132,3.713,3.7129,3.7129,3.7128,3.6448,3.6505,3.6558,3.663,3.6671,3.672,3.6776,3.6806,3.687,3.6945,3.6951,3.7033,3.7085,3.7177,3.7212,3.7276,3.7256,3.7283,3.7289,3.7295,3.73,3.7131,3.7288,3.7288,3.7288,3.7287,3.7287,0,3.6601,3.6634,3.67,3.6773,3.6829,3.6817,3.6874,3.6921,3.6994,3.7043,3.7102,3.7188,3.7259,3.7297,3.7367,3.741,3.7408,3.7428,3.7425,3.7432,3.7314,3.7291,3.7428,3.7428,3.7428,3.7428,3.7428,3.7428,3.6687,3.6781,3.6796,3.6911,3.6944,3.7024,3.7058,3.7102,3.7142,3.7239,3.7297,3.7321,3.7366,3.7439,3.7502,3.7511,3.7537,3.7559,3.7566,3.7455,3.744,3.7426,3.7405,3.7564,3.7564,3.7679,3.768,3.768]}]]